| time (UTC) | temp F | wind direction | speed MPH | gust MPH | rain 1hr in | rain 24hr in | rain mn in | humidity % | barometer mb |
| 20260905224331 | 78 | 15 | 1.0 | 2.0 | 0.00 | 0.00 | 0.00 | 69 | 1010.0 |
| 20260905223338 | 77 | 46 | 0.0 | 3.0 | 0.00 | 0.00 | 0.00 | 69 | 1010.0 |
| 20260905222338 | 78 | 22 | 3.0 | 8.0 | 0.00 | 0.00 | 0.00 | 66 | 1009.9 |
| 20260905221317 | 79 | 16 | 3.0 | 8.0 | 0.00 | 0.00 | 0.00 | 63 | 1009.7 |
| 20260905220339 | 81 | 351 | 4.0 | 10.0 | 0.00 | 0.00 | 0.00 | 63 | 1009.7 |
| 20260905215313 | 81 | 333 | 4.0 | 10.0 | 0.00 | 0.00 | 0.00 | 63 | 1009.5 |
| 20260905214318 | 81 | 360 | 5.0 | 12.0 | 0.00 | 0.00 | 0.00 | 63 | 1009.5 |
| 20260905213326 | 81 | 9 | 4.0 | 8.0 | 0.00 | 0.00 | 0.00 | 63 | 1009.5 |
| 20260905212335 | 82 | 329 | 4.0 | 10.0 | 0.00 | 0.00 | 0.00 | 62 | 1009.4 |
| 20260905211318 | 82 | 333 | 3.0 | 11.0 | 0.00 | 0.00 | 0.00 | 64 | 1009.3 |
| 20260905210320 | 81 | 360 | 4.0 | 8.0 | 0.00 | 0.00 | 0.00 | 65 | 1009.3 |
| 20260905205331 | 81 | 351 | 4.0 | 8.0 | 0.00 | 0.00 | 0.00 | 63 | 1009.4 |
| 20260905204317 | 82 | 325 | 5.0 | 9.0 | 0.00 | 0.00 | 0.00 | 64 | 1009.4 |
| 20260905203318 | 82 | 298 | 2.0 | 8.0 | 0.00 | 0.00 | 0.00 | 62 | 1009.5 |
| 20260905202317 | 82 | 346 | 5.0 | 8.0 | 0.00 | 0.00 | 0.00 | 65 | 1009.6 |
| 20260905201336 | 81 | 342 | 3.0 | 8.0 | 0.00 | 0.00 | 0.00 | 65 | 1009.6 |
| 20260905200337 | 81 | 30 | 3.0 | 10.0 | 0.00 | 0.00 | 0.00 | 62 | 1009.7 |
| 20260905195337 | 82 | 10 | 4.0 | 6.0 | 0.00 | 0.00 | 0.00 | 64 | 1009.6 |
| 20260905194314 | 80 | 328 | 3.0 | 6.0 | 0.00 | 0.00 | 0.00 | 65 | 1009.7 |
| 20260905193314 | 81 | 317 | 3.0 | 7.0 | 0.00 | 0.00 | 0.00 | 64 | 1009.9 |
| 20260905192313 | 82 | 339 | 4.0 | 8.0 | 0.00 | 0.00 | 0.00 | 62 | 1010.0 |
| 20260905191337 | 82 | 24 | 4.0 | 10.0 | 0.00 | 0.00 | 0.00 | 60 | 1010.1 |
| 20260905190340 | 83 | 329 | 2.0 | 9.0 | 0.00 | 0.00 | 0.00 | 64 | 1010.1 |
| 20260905185318 | 83 | 44 | 2.0 | 14.0 | 0.00 | 0.00 | 0.00 | 67 | 1010.0 |
| 20260905184358 | 83 | 343 | 5.0 | 11.0 | 0.00 | 0.00 | 0.00 | 64 | 1010.1 |
| 20260905183315 | 83 | 350 | 5.0 | 8.0 | 0.00 | 0.00 | 0.00 | 64 | 1010.3 |
| 20260905182401 | 82 | 338 | 2.0 | 10.0 | 0.00 | 0.00 | 0.00 | 63 | 1010.3 |
| 20260905181332 | 82 | 14 | 6.0 | 10.0 | 0.00 | 0.00 | 0.00 | 68 | 1010.5 |
| 20260905180334 | 82 | 313 | 2.0 | 9.0 | 0.00 | 0.00 | 0.00 | 70 | 1010.5 |
| 20260905175316 | 81 | 25 | 2.0 | 5.0 | 0.00 | 0.00 | 0.00 | 71 | 1010.5 |
| 20260905174332 | 81 | 82 | 1.0 | 8.0 | 0.00 | 0.00 | 0.00 | 69 | 1010.7 |
| 20260905173313 | 80 | 323 | 4.0 | 6.0 | 0.00 | 0.00 | 0.00 | 73 | 1010.8 |
| 20260905172331 | 80 | 337 | 3.0 | 8.0 | 0.00 | 0.00 | 0.00 | 74 | 1010.9 |
| 20260905171332 | 80 | 349 | 3.0 | 8.0 | 0.00 | 0.00 | 0.00 | 74 | 1011.0 |
| 20260905170336 | 79 | 329 | 1.0 | 6.0 | 0.00 | 0.00 | 0.00 | 71 | 1011.0 |
| 20260905165315 | 80 | 5 | 2.0 | 10.0 | 0.00 | 0.00 | 0.00 | 73 | 1011.1 |
| 20260905164318 | 80 | 344 | 3.0 | 6.0 | 0.00 | 0.00 | 0.00 | 74 | 1011.2 |
| 20260905163400 | 79 | 350 | 3.0 | 6.0 | 0.00 | 0.00 | 0.00 | 75 | 1011.2 |
| 20260905162331 | 78 | 15 | 4.0 | 6.0 | 0.00 | 0.00 | 0.00 | 74 | 1011.3 |
| 20260905161314 | 78 | 5 | 4.0 | 9.0 | 0.00 | 0.00 | 0.00 | 76 | 1011.3 |
| 20260905160357 | 79 | 309 | 3.0 | 8.0 | 0.00 | 0.00 | 0.00 | 75 | 1011.5 |
| 20260905155338 | 79 | 5 | 3.0 | 8.0 | 0.00 | 0.00 | 0.00 | 76 | 1011.5 |
| 20260905154338 | 78 | 294 | 2.0 | 5.0 | 0.00 | 0.00 | 0.00 | 75 | 1011.6 |
| 20260905153334 | 78 | 326 | 1.0 | 4.0 | 0.00 | 0.00 | 0.00 | 75 | 1011.7 |
| 20260905152312 | 77 | 349 | 2.0 | 4.0 | 0.00 | 0.00 | 0.00 | 79 | 1011.8 |
| 20260905151339 | 77 | 5 | 2.0 | 4.0 | 0.00 | 0.00 | 0.00 | 79 | 1011.9 |
| 20260905150315 | 77 | 347 | 3.0 | 5.0 | 0.00 | 0.00 | 0.00 | 81 | 1012.0 |
| 20260905145319 | 76 | 323 | 2.0 | 5.0 | 0.00 | 0.00 | 0.00 | 82 | 1012.1 |
| 20260905144334 | 76 | 345 | 2.0 | 4.0 | 0.00 | 0.00 | 0.00 | 85 | 1011.9 |
| 20260905143314 | 76 | 351 | 0.0 | 3.0 | 0.00 | 0.00 | 0.00 | 84 | 1011.8 |
| 20260905142319 | 76 | 336 | 0.0 | 3.0 | 0.00 | 0.00 | 0.00 | 86 | 1011.8 |
| 20260905141326 | 75 | 36 | 1.0 | 3.0 | 0.00 | 0.00 | 0.00 | 87 | 1011.7 |
| 20260905140321 | 75 | 313 | 1.0 | 3.0 | 0.00 | 0.00 | 0.00 | 87 | 1011.6 |
| 20260905135332 | 75 | 309 | 3.0 | 4.0 | 0.00 | 0.00 | 0.00 | 88 | 1011.4 |
| 20260905134313 | 75 | 328 | 2.0 | 4.0 | 0.00 | 0.00 | 0.00 | 89 | 1011.1 |
| 20260905133336 | 74 | 314 | 2.0 | 4.0 | 0.00 | 0.00 | 0.00 | 90 | 1011.1 |
| 20260905132313 | 74 | 233 | 0.0 | 2.0 | 0.00 | 0.00 | 0.00 | 92 | 1011.1 |
| 20260905131316 | 73 | 233 | 1.0 | 2.0 | 0.00 | 0.00 | 0.00 | 94 | 1011.3 |
| 20260905130313 | 72 | 233 | 1.0 | 3.0 | 0.00 | 0.00 | 0.00 | 94 | 1011.3 |
| 20260905125313 | 72 | 223 | 1.0 | 3.0 | 0.00 | 0.00 | 0.00 | 95 | 1011.2 |
| 20260905124314 | 72 | 237 | 1.0 | 2.0 | 0.00 | 0.00 | 0.00 | 95 | 1011.2 |
| 20260905123333 | 72 | 237 | 1.0 | 3.0 | 0.00 | 0.00 | 0.00 | 96 | 1011.0 |
| 20260905122339 | 72 | 181 | 1.0 | 2.0 | 0.00 | 0.00 | 0.00 | 96 | 1011.0 |
| 20260905121337 | 71 | 202 | 0.0 | 3.0 | 0.00 | 0.00 | 0.00 | 96 | 1010.9 |
| 20260905120337 | 71 | 212 | 1.0 | 4.0 | 0.00 | 0.00 | 0.00 | 96 | 1011.0 |
| 20260905115341 | 71 | 156 | 1.0 | 2.0 | 0.00 | 0.00 | 0.00 | 96 | 1010.9 |
| 20260905114313 | 71 | 156 | 0.0 | 1.0 | 0.00 | 0.00 | 0.00 | 96 | 1010.8 |
| 20260905113336 | 71 | 156 | 0.0 | 1.0 | 0.00 | 0.00 | 0.00 | 96 | 1010.9 |
| 20260905112357 | 71 | 156 | 0.0 | 0.0 | 0.00 | 0.00 | 0.00 | 96 | 1010.8 |
| 20260905111315 | 71 | 156 | 0.0 | 2.0 | 0.00 | 0.00 | 0.00 | 96 | 1010.7 |
| 20260905110327 | 71 | 156 | 1.0 | 2.0 | 0.00 | 0.00 | 0.00 | 96 | 1010.6 |
| 20260905105336 | 71 | 156 | 0.0 | 1.0 | 0.00 | 0.00 | 0.00 | 96 | 1010.7 |
| 20260905104332 | 70 | 156 | 0.0 | 0.0 | 0.00 | 0.00 | 0.00 | 96 | 1010.4 |
| 20260905103313 | 70 | 156 | 0.0 | 1.0 | 0.00 | 0.00 | 0.00 | 96 | 1010.2 |
| 20260905102312 | 70 | 156 | 0.0 | 2.0 | 0.00 | 0.00 | 0.00 | 96 | 1010.2 |
| 20260905101336 | 70 | 156 | 0.0 | 1.0 | 0.00 | 0.00 | 0.00 | 95 | 1010.2 |
| 20260905100347 | 70 | 156 | 0.0 | 2.0 | 0.00 | 0.00 | 0.00 | 95 | 1010.2 |
| 20260905095332 | 70 | 156 | 1.0 | 2.0 | 0.00 | 0.00 | 0.00 | 95 | 1010.0 |
| 20260905094320 | 70 | 156 | 1.0 | 2.0 | 0.00 | 0.00 | 0.00 | 95 | 1010.1 |
| 20260905093328 | 70 | 156 | 0.0 | 0.0 | 0.00 | 0.00 | 0.00 | 95 | 1010.1 |
| 20260905092337 | 70 | 156 | 0.0 | 1.0 | 0.00 | 0.00 | 0.00 | 95 | 1010.0 |
| 20260905091316 | 70 | 156 | 0.0 | 2.0 | 0.00 | 0.00 | 0.00 | 95 | 1010.0 |
| 20260905090339 | 70 | 156 | 1.0 | 2.0 | 0.00 | 0.00 | 0.00 | 95 | 1010.0 |
| 20260905085316 | 69 | 156 | 0.0 | 1.0 | 0.00 | 0.00 | 0.00 | 95 | 1010.1 |
| 20260905084317 | 69 | 156 | 1.0 | 2.0 | 0.00 | 0.00 | 0.00 | 95 | 1010.0 |
| 20260905083343 | 69 | 156 | 0.0 | 1.0 | 0.00 | 0.00 | 0.00 | 95 | 1010.1 |
| 20260905082336 | 69 | 156 | 0.0 | 1.0 | 0.00 | 0.00 | 0.00 | 95 | 1010.0 |
| 20260905081340 | 70 | 156 | 1.0 | 2.0 | 0.00 | 0.00 | 0.00 | 95 | 1010.1 |
| 20260905080356 | 70 | 156 | 0.0 | 1.0 | 0.00 | 0.00 | 0.00 | 95 | 1010.1 |
| 20260905075316 | 70 | 156 | 1.0 | 2.0 | 0.00 | 0.00 | 0.00 | 95 | 1010.1 |
| 20260905074339 | 70 | 156 | 1.0 | 2.0 | 0.00 | 0.00 | 0.00 | 95 | 1010.2 |
| 20260905073319 | 70 | 156 | 0.0 | 2.0 | 0.00 | 0.00 | 0.00 | 95 | 1010.3 |
| 20260905072341 | 70 | 156 | 1.0 | 2.0 | 0.00 | 0.00 | 0.00 | 95 | 1010.3 |
| 20260905071338 | 70 | 156 | 0.0 | 2.0 | 0.00 | 0.00 | 0.00 | 95 | 1010.3 |
| 20260905070315 | 70 | 156 | 0.0 | 1.0 | 0.00 | 0.00 | 0.00 | 95 | 1010.5 |
| 20260905065341 | 70 | 156 | 1.0 | 2.0 | 0.00 | 0.01 | 0.00 | 95 | 1010.6 |
| 20260905064341 | 70 | 156 | 1.0 | 2.0 | 0.00 | 0.01 | 0.00 | 95 | 1010.8 |
| 20260905063320 | 70 | 156 | 0.0 | 1.0 | 0.00 | 0.01 | 0.00 | 95 | 1010.9 |
| 20260905062321 | 70 | 156 | 1.0 | 2.0 | 0.00 | 0.01 | 0.00 | 95 | 1011.0 |
| 20260905061322 | 70 | 156 | 1.0 | 2.0 | 0.00 | 0.01 | 0.00 | 95 | 1011.1 |
| 20260905060344 | 70 | 156 | 1.0 | 3.0 | 0.00 | 0.01 | 0.00 | 94 | 1011.2 |
| 20260905055338 | 70 | 156 | 0.0 | 1.0 | 0.00 | 0.01 | 0.00 | 94 | 1011.3 |
| 20260905054324 | 70 | 156 | 1.0 | 2.0 | 0.00 | 0.01 | 0.00 | 94 | 1011.4 |
| 20260905053317 | 70 | 156 | 1.0 | 2.0 | 0.00 | 0.01 | 0.00 | 94 | 1011.4 |
| 20260905052339 | 70 | 156 | 0.0 | 3.0 | 0.00 | 0.01 | 0.00 | 94 | 1011.7 |
| 20260905051337 | 71 | 154 | 2.0 | 3.0 | 0.00 | 0.01 | 0.00 | 94 | 1011.8 |
| 20260905050326 | 71 | 200 | 0.0 | 1.0 | 0.00 | 0.01 | 0.00 | 94 | 1011.9 |
| 20260905045337 | 71 | 200 | 1.0 | 2.0 | 0.00 | 0.01 | 0.00 | 94 | 1011.9 |
| 20260905044400 | 71 | 200 | 1.0 | 3.0 | 0.00 | 0.01 | 0.00 | 94 | 1011.8 |
| 20260905043402 | 72 | 163 | 2.0 | 3.0 | 0.00 | 0.01 | 0.00 | 94 | 1011.6 |
| 20260905042340 | 72 | 176 | 1.0 | 3.0 | 0.00 | 0.01 | 0.00 | 94 | 1011.7 |
| 20260905041347 | 72 | 202 | 1.0 | 2.0 | 0.00 | 0.01 | 0.00 | 94 | 1011.9 |
| 20260905040324 | 72 | 157 | 0.0 | 1.0 | 0.00 | 0.01 | 0.00 | 94 | 1011.9 |
| 20260905035316 | 72 | 157 | 0.0 | 0.0 | 0.00 | 0.11 | 0.01 | 94 | 1011.9 |
| 20260905034316 | 72 | 157 | 0.0 | 3.0 | 0.00 | 0.11 | 0.01 | 94 | 1011.9 |
| 20260905033317 | 72 | 194 | 2.0 | 4.0 | 0.00 | 0.11 | 0.01 | 94 | 1011.9 |
| 20260905032320 | 72 | 205 | 2.0 | 3.0 | 0.00 | 0.11 | 0.01 | 94 | 1011.8 |
| 20260905031337 | 72 | 184 | 1.0 | 3.0 | 0.00 | 0.11 | 0.01 | 94 | 1011.9 |
| 20260905030356 | 72 | 213 | 1.0 | 3.0 | 0.00 | 0.11 | 0.01 | 94 | 1011.7 |
| 20260905025338 | 73 | 199 | 2.0 | 4.0 | 0.00 | 0.13 | 0.01 | 94 | 1011.7 |
| 20260905024316 | 73 | 155 | 2.0 | 4.0 | 0.00 | 0.13 | 0.01 | 93 | 1011.6 |
| 20260905023337 | 73 | 169 | 1.0 | 3.0 | 0.00 | 0.13 | 0.01 | 93 | 1011.4 |
| 20260905022338 | 73 | 161 | 2.0 | 3.0 | 0.00 | 0.13 | 0.01 | 93 | 1011.4 |
| 20260905021358 | 73 | 140 | 1.0 | 3.0 | 0.00 | 0.13 | 0.01 | 93 | 1011.4 |
| 20260905020316 | 73 | 132 | 1.0 | 2.0 | 0.00 | 0.13 | 0.01 | 92 | 1011.3 |
| 20260905015322 | 73 | 207 | 0.0 | 1.0 | 0.00 | 0.18 | 0.01 | 92 | 1011.2 |
| 20260905014336 | 73 | 207 | 0.0 | 1.0 | 0.00 | 0.18 | 0.01 | 92 | 1011.1 |
| 20260905013315 | 74 | 207 | 0.0 | 0.0 | 0.00 | 0.18 | 0.01 | 92 | 1011.0 |
| 20260905012319 | 74 | 207 | 0.0 | 1.0 | 0.00 | 0.18 | 0.01 | 91 | 1011.0 |
| 20260905011327 | 74 | 207 | 0.0 | 2.0 | 0.00 | 0.18 | 0.01 | 91 | 1011.1 |
| 20260905010334 | 74 | 207 | 0.0 | 2.0 | 0.00 | 0.18 | 0.01 | 90 | 1011.1 |
| 20260905005337 | 75 | 207 | 0.0 | 2.0 | 0.00 | 0.18 | 0.01 | 90 | 1011.1 |
| 20260905004315 | 75 | 207 | 0.0 | 2.0 | 0.00 | 0.18 | 0.01 | 89 | 1011.0 |
| 20260905003316 | 76 | 207 | 0.0 | 1.0 | 0.00 | 0.18 | 0.01 | 89 | 1011.0 |
| 20260905002318 | 76 | 207 | 1.0 | 2.0 | 0.00 | 0.18 | 0.01 | 88 | 1010.8 |
| 20260905001315 | 77 | 207 | 1.0 | 5.0 | 0.00 | 0.18 | 0.01 | 88 | 1010.7 |
| 20260905000340 | 77 | 222 | 2.0 | 8.0 | 0.00 | 0.18 | 0.01 | 87 | 1010.7 |
| 20260904235344 | 78 | 196 | 2.0 | 5.0 | 0.00 | 0.18 | 0.01 | 87 | 1010.8 |
| 20260904234315 | 78 | 219 | 2.0 | 5.0 | 0.00 | 0.18 | 0.01 | 86 | 1010.7 |
| 20260904233339 | 79 | 191 | 3.0 | 7.0 | 0.00 | 0.18 | 0.01 | 85 | 1010.8 |
| 20260904232341 | 79 | 192 | 2.0 | 6.0 | 0.00 | 0.18 | 0.01 | 85 | 1010.8 |
| 20260904231315 | 80 | 190 | 3.0 | 6.0 | 0.00 | 0.18 | 0.01 | 84 | 1010.8 |
| 20260904230315 | 81 | 192 | 2.0 | 4.0 | 0.00 | 0.18 | 0.01 | 85 | 1010.7 |
| 20260904225340 | 81 | 190 | 1.0 | 3.0 | 0.00 | 0.18 | 0.01 | 84 | 1010.9 |